Location: Franzen
(48.6167°N, 15.3833°E)
Time: 01:30:23
(UTC+00:00)

ISS - Pass Details

Date: 01 July 2021
Orbit: 419 x 421 km, 51.6° (Epoch: 02 August)

Event Time Altitude Azimuth Distance (km) Brightness Sun altitude
Exits shadow 02:19:19 - 236° (SW) 1,701 -1.3 -5.9°
Reaches altitude 10° 02:19:49 10° 235° (SW) 1,498 -1.6 -5.8°
Maximum altitude 02:23:08 64° 153° (SSE) 470 -3.6 -5.4°
Drops below altitude 10° 02:26:29 10° 72° (ENE) 1,504 0.3 -5.1°
Sets 02:28:36 0° 69° (ENE) 2,370 1.5 -4.8°
